Hourly Data Report for October 03, 2016

All times are specified in Local Standard Time (LST). Add 1 hour to adjust for Daylight Saving Time where and when it is observed.

CLYDE RIVER A
NUNAVUT

70°29'09.000" N
68°31'01.000" W
26.50 m
2400804
71090
YCY

Download Data

Hourly Data (October 2016)
Hourly Data Report for October 3, 2016
Temp Definition
°C
Dew Point Temp Definition
°C
Rel Hum Definition
%
Wind Dir Definition
10's deg

Wind Spd Definition
km/h
Visibility Definition
km
Stn Press Definition
kPa
Hmdx Definition


Wind Chill Definition


Weather Definition


TIME
00:00 Legend Double Dagger -3.1 -7.1 74 19 11 16.1 100.29   -7 LegendNANA
01:00 Legend Double Dagger -2.0 -7.6 66 21 21 16.1 100.23   -8 LegendNANA
02:00 Legend Double Dagger -3.2 -7.6 72 27 13 16.1 100.20   -8 LegendNANA
03:00 Legend Double Dagger -3.1 -7.8 70   0 16.1 100.21     LegendNANA
04:00 Legend Double Dagger -2.0 -7.6 66 24 4 16.1 100.16   -3 LegendNANA
05:00 Legend Double Dagger -3.3 -6.6 78 30 4 16.1 100.13   -5 LegendNANA
06:00 Legend Double Dagger -0.9 -5.7 70 23 22 16.1 100.12   -7 LegendNANA
07:00 Legend Double Dagger 0.5 -6.4 60 24 22 16.1 100.06     LegendNANA
08:00 Legend Double Dagger 0.6 -6.5 59 21 21 16.1 100.08     LegendNANA
09:00 Legend Double Dagger 1.2 -5.8 60 22 21 16.1 100.05     LegendNANA
10:00 Legend Double Dagger 1.6 -6.7 54 26 32 16.1 100.01     LegendNANA
11:00 Legend Double Dagger 2.2 -5.7 56 20 22 16.1 100.04     LegendNANA
12:00 Legend Double Dagger 2.4 -6.4 53 24 18 16.1 100.03     LegendNANA
13:00 Legend Double Dagger 2.2 -5.6 57 24 21 16.1 100.06     LegendNANA
14:00 Legend Double Dagger 2.2 -5.6 57 20 13 16.1 100.12     LegendNANA
15:00 Legend Double Dagger 1.1 -5.1 63 20 18 16.1 100.09     LegendNANA
16:00 Legend Double Dagger 0.5 -5.3 65 23 8 16.1 100.11     LegendNANA
17:00 Legend Double Dagger -0.5 -6.4 64 29 8 16.1 100.10   -3 LegendNANA
18:00 Legend Double Dagger -2.2 -5.9 76 LegendMM 9 16.1 100.12   -6 LegendNANA
19:00 Legend Double Dagger -3.6 -6.6 80 35 11 16.1 100.10   -8 LegendNANA
20:00 Legend Double Dagger -2.6 -7.2 71 25 11 16.1 100.09   -7 LegendNANA
21:00 Legend Double Dagger -4.1 -7.8 76 29 5 16.1 100.07   -6 LegendNANA
22:00 Legend Double Dagger -3.5 -8.2 70 26 13 16.1 100.08   -8 LegendNANA
23:00 Legend Double Dagger -3.1 -8.0 69 28 8 16.1 100.05   -6 LegendNANA

Notes on Data Quality.

Legend

  • E = Estimated
  • M = Missing
  • NA = Not Available
  • ‡ = Partner data that is not subject to review by the National Climate Archives
Date modified: